| time (UTC) | temp C | wind direction | speed KPH | gust KPH | rain 1hr cm | rain 24hr cm | rain mn cm | humidity % | barometer mb |
| 20260906162250 | 23 | 166 | 6.4 | 9.7 | 0.00 | 0.00 | 0.00 | 79 | 1019.3 |
| 20260906161745 | 23 | 55 | 4.8 | 12.9 | 0.00 | 0.00 | 0.00 | 81 | 1019.4 |
| 20260906161244 | 24 | 170 | 9.7 | 12.9 | 0.00 | 0.00 | 0.00 | 78 | 1019.6 |
| 20260906160743 | 24 | 99 | 4.8 | 11.3 | 0.00 | 0.00 | 0.00 | 79 | 1019.5 |
| 20260906160238 | 23 | 138 | 6.4 | 12.9 | 0.00 | 0.00 | 0.00 | 80 | 1019.6 |
| 20260906155735 | 23 | 151 | 3.2 | 11.3 | 0.00 | 0.00 | 0.00 | 81 | 1019.4 |
| 20260906155230 | 23 | 109 | 12.9 | 14.5 | 0.00 | 0.00 | 0.00 | 82 | 1019.4 |
| 20260906154726 | 23 | 92 | 9.7 | 12.9 | 0.00 | 0.00 | 0.00 | 80 | 1019.3 |
| 20260906154221 | 23 | 105 | 11.3 | 14.5 | 0.00 | 0.00 | 0.00 | 80 | 1019.2 |
| 20260906153719 | 22 | 116 | 9.7 | 14.5 | 0.00 | 0.00 | 0.00 | 85 | 1019.5 |
| 20260906153213 | 22 | 201 | 1.6 | 14.5 | 0.00 | 0.00 | 0.00 | 86 | 1019.5 |
| 20260906152703 | 22 | 143 | 3.2 | 9.7 | 0.00 | 0.00 | 0.00 | 85 | 1019.5 |
| 20260906152202 | 22 | 123 | 6.4 | 12.9 | 0.00 | 0.00 | 0.00 | 85 | 1019.5 |
| 20260906151657 | 23 | 143 | 6.4 | 11.3 | 0.00 | 0.00 | 0.00 | 81 | 1019.3 |
| 20260906151153 | 23 | 98 | 3.2 | 11.3 | 0.00 | 0.00 | 0.00 | 83 | 1019.2 |
| 20260906150648 | 22 | 177 | 11.3 | 14.5 | 0.00 | 0.00 | 0.00 | 85 | 1019.1 |
| 20260906150143 | 21 | 153 | 4.8 | 14.5 | 0.00 | 0.00 | 0.00 | 89 | 1019.2 |
| 20260906145642 | 21 | 94 | 6.4 | 12.9 | 0.00 | 0.00 | 0.00 | 90 | 1019.4 |
| 20260906145137 | 21 | 109 | 4.8 | 6.4 | 0.00 | 0.00 | 0.00 | 91 | 1019.4 |
| 20260906144631 | 20 | 146 | 4.8 | 9.7 | 0.00 | 0.00 | 0.00 | 93 | 1019.4 |
| 20260906144126 | 20 | 156 | 4.8 | 11.3 | 0.00 | 0.00 | 0.00 | 94 | 1019.4 |
| 20260906143626 | 20 | 132 | 6.4 | 12.9 | 0.00 | 0.00 | 0.00 | 94 | 1019.4 |
| 20260906143123 | 20 | 120 | 6.4 | 11.3 | 0.00 | 0.00 | 0.00 | 95 | 1019.5 |
| 20260906142622 | 19 | 122 | 8.0 | 14.5 | 0.00 | 0.00 | 0.00 | 96 | 1019.4 |
| 20260906142117 | 19 | 154 | 4.8 | 12.9 | 0.00 | 0.00 | 0.00 | 96 | 1019.5 |
| 20260906141616 | 20 | 113 | 9.7 | 16.1 | 0.00 | 0.00 | 0.00 | 95 | 1019.4 |
| 20260906141112 | 20 | 98 | 4.8 | 9.7 | 0.00 | 0.00 | 0.00 | 96 | 1019.4 |
| 20260906140611 | 20 | 125 | 6.4 | 11.3 | 0.00 | 0.00 | 0.00 | 95 | 1019.2 |
| 20260906140106 | 20 | 90 | 9.7 | 11.3 | 0.00 | 0.00 | 0.00 | 96 | 1019.4 |
| 20260906135603 | 20 | 121 | 6.4 | 9.7 | 0.00 | 0.00 | 0.00 | 96 | 1019.3 |
| 20260906135059 | 20 | 94 | 8.0 | 11.3 | 0.00 | 0.00 | 0.00 | 96 | 1019.2 |
| 20260906134554 | 20 | 95 | 11.3 | 16.1 | 0.00 | 0.00 | 0.00 | 96 | 1018.9 |
| 20260906134049 | 20 | 169 | 6.4 | 12.9 | 0.00 | 0.00 | 0.00 | 96 | 1019.1 |
| 20260906133550 | 20 | 199 | 9.7 | 12.9 | 0.00 | 0.00 | 0.00 | 95 | 1018.8 |
| 20260906133045 | 20 | 129 | 6.4 | 11.3 | 0.00 | 0.00 | 0.00 | 95 | 1019.2 |
| 20260906132540 | 20 | 85 | 6.4 | 11.3 | 0.00 | 0.00 | 0.00 | 95 | 1018.9 |
| 20260906132036 | 20 | 111 | 6.4 | 11.3 | 0.00 | 0.00 | 0.00 | 95 | 1019.0 |
| 20260906131531 | 20 | 110 | 6.4 | 9.7 | 0.00 | 0.00 | 0.00 | 95 | 1018.8 |
| 20260906131026 | 20 | 109 | 1.6 | 9.7 | 0.00 | 0.00 | 0.00 | 95 | 1018.8 |
| 20260906130525 | 20 | 115 | 4.8 | 11.3 | 0.00 | 0.00 | 0.00 | 95 | 1019.0 |
| 20260906130022 | 20 | 110 | 6.4 | 9.7 | 0.00 | 0.00 | 0.00 | 96 | 1018.9 |
| 20260906125519 | 20 | 109 | 6.4 | 6.4 | 0.00 | 0.00 | 0.00 | 96 | 1018.9 |
| 20260906125019 | 19 | 122 | 4.8 | 9.7 | 0.00 | 0.00 | 0.00 | 96 | 1018.9 |
| 20260906124515 | 20 | 87 | 6.4 | 6.4 | 0.00 | 0.00 | 0.00 | 96 | 1019.1 |
| 20260906124015 | 19 | 83 | 3.2 | 4.8 | 0.00 | 0.00 | 0.00 | 96 | 1019.2 |
| 20260906123513 | 19 | 122 | 4.8 | 4.8 | 0.00 | 0.00 | 0.00 | 97 | 1018.9 |
| 20260906123009 | 19 | 114 | 0.0 | 4.8 | 0.00 | 0.00 | 0.00 | 97 | 1019.1 |
| 20260906122503 | 19 | 94 | 4.8 | 4.8 | 0.00 | 0.00 | 0.00 | 98 | 1018.8 |
| 20260906121959 | 19 | 106 | 3.2 | 9.7 | 0.00 | 0.00 | 0.00 | 98 | 1018.8 |
| 20260906121455 | 18 | 96 | 1.6 | 4.8 | 0.00 | 0.00 | 0.00 | 99 | 1018.9 |
| 20260906120951 | 18 | 101 | 1.6 | 4.8 | 0.00 | 0.00 | 0.00 | 99 | 1018.7 |
| 20260906120447 | 18 | 102 | 1.6 | 4.8 | 0.00 | 0.00 | 0.00 | 99 | 1018.8 |
| 20260906115943 | 18 | 111 | 0.0 | 6.4 | 0.00 | 0.00 | 0.00 | 99 | 1018.6 |
| 20260906115438 | 18 | 133 | 4.8 | 4.8 | 0.00 | 0.00 | 0.00 | 99 | 1018.6 |
| 20260906114932 | 18 | 95 | 3.2 | 4.8 | 0.00 | 0.00 | 0.00 | 99 | 1018.4 |
| 20260906114432 | 18 | 112 | 3.2 | 4.8 | 0.00 | 0.00 | 0.00 | 99 | 1018.6 |
| 20260906113928 | 18 | 114 | 0.0 | 3.2 | 0.00 | 0.00 | 0.00 | 99 | 1018.5 |
| 20260906113426 | 18 | 110 | 4.8 | 9.7 | 0.00 | 0.00 | 0.00 | 99 | 1018.2 |
| 20260906112923 | 18 | 134 | 3.2 | 4.8 | 0.00 | 0.00 | 0.00 | 99 | 1018.3 |
| 20260906112418 | 18 | 102 | 3.2 | 6.4 | 0.00 | 0.00 | 0.00 | 99 | 1018.3 |
| 20260906111914 | 18 | 114 | 3.2 | 4.8 | 0.00 | 0.00 | 0.00 | 99 | 1018.2 |
| 20260906111413 | 18 | 99 | 0.0 | 0.0 | 0.00 | 0.00 | 0.00 | 99 | 1018.2 |
| 20260906110908 | 18 | 99 | 1.6 | 3.2 | 0.00 | 0.00 | 0.00 | 99 | 1018.3 |
| 20260906110403 | 18 | 99 | 0.0 | 1.6 | 0.00 | 0.00 | 0.00 | 99 | 1018.2 |
| 20260906105903 | 18 | 99 | 0.0 | 0.0 | 0.00 | 0.00 | 0.00 | 99 | 1018.2 |
| 20260906105358 | 18 | 99 | 1.6 | 3.2 | 0.00 | 0.00 | 0.00 | 99 | 1018.0 |
| 20260906104854 | 19 | 99 | 0.0 | 0.0 | 0.00 | 0.00 | 0.00 | 98 | 1018.0 |
| 20260906104352 | 19 | 99 | 0.0 | 1.6 | 0.00 | 0.00 | 0.00 | 98 | 1018.0 |
| 20260906103851 | 19 | 99 | 0.0 | 0.0 | 0.00 | 0.00 | 0.00 | 98 | 1018.0 |
| 20260906103349 | 19 | 99 | 1.6 | 3.2 | 0.00 | 0.00 | 0.00 | 98 | 1018.1 |
| 20260906102846 | 19 | 99 | 0.0 | 1.6 | 0.00 | 0.00 | 0.00 | 98 | 1018.1 |
| 20260906102344 | 19 | 99 | 0.0 | 1.6 | 0.00 | 0.00 | 0.00 | 97 | 1018.1 |
| 20260906101840 | 20 | 113 | 3.2 | 4.8 | 0.00 | 0.00 | 0.00 | 97 | 1017.8 |
| 20260906101335 | 20 | 145 | 1.6 | 4.8 | 0.00 | 0.00 | 0.00 | 97 | 1017.9 |
| 20260906100831 | 20 | 111 | 6.4 | 6.4 | 0.00 | 0.00 | 0.00 | 97 | 1017.8 |
| 20260906100329 | 20 | 105 | 4.8 | 4.8 | 0.00 | 0.00 | 0.00 | 97 | 1017.8 |
| 20260906095825 | 20 | 113 | 1.6 | 3.2 | 0.00 | 0.00 | 0.00 | 96 | 1017.8 |
| 20260906095320 | 20 | 100 | 0.0 | 1.6 | 0.00 | 0.00 | 0.00 | 96 | 1017.7 |
| 20260906094819 | 20 | 109 | 1.6 | 3.2 | 0.00 | 0.00 | 0.00 | 96 | 1017.3 |
| 20260906094315 | 20 | 108 | 3.2 | 4.8 | 0.00 | 0.00 | 0.00 | 96 | 1017.3 |
| 20260906093811 | 20 | 115 | 3.2 | 4.8 | 0.00 | 0.00 | 0.00 | 96 | 1017.5 |
| 20260906093307 | 20 | 95 | 3.2 | 4.8 | 0.00 | 0.00 | 0.00 | 96 | 1017.3 |
| 20260906092802 | 20 | 99 | 3.2 | 4.8 | 0.00 | 0.00 | 0.00 | 96 | 1017.3 |
| 20260906092305 | 20 | 91 | 3.2 | 4.8 | 0.00 | 0.00 | 0.00 | 95 | 1017.2 |
| 20260906091757 | 20 | 108 | 1.6 | 3.2 | 0.00 | 0.00 | 0.00 | 95 | 1017.2 |
| 20260906091253 | 20 | 98 | 3.2 | 4.8 | 0.00 | 0.00 | 0.00 | 95 | 1017.5 |
| 20260906090750 | 20 | 102 | 4.8 | 4.8 | 0.00 | 0.00 | 0.00 | 96 | 1017.5 |
| 20260906090248 | 20 | 102 | 3.2 | 4.8 | 0.00 | 0.00 | 0.00 | 96 | 1017.2 |
| 20260906085748 | 20 | 113 | 1.6 | 4.8 | 0.00 | 0.00 | 0.00 | 96 | 1017.5 |
| 20260906085247 | 20 | 116 | 3.2 | 6.4 | 0.00 | 0.00 | 0.00 | 95 | 1017.3 |
| 20260906084742 | 20 | 113 | 3.2 | 4.8 | 0.00 | 0.00 | 0.00 | 96 | 1017.0 |
| 20260906084236 | 20 | 105 | 1.6 | 3.2 | 0.00 | 0.00 | 0.00 | 96 | 1017.1 |
| 20260906083732 | 20 | 96 | 1.6 | 4.8 | 0.00 | 0.00 | 0.00 | 97 | 1017.0 |
| 20260906083227 | 20 | 89 | 1.6 | 3.2 | 0.00 | 0.00 | 0.00 | 98 | 1017.1 |
| 20260906082722 | 20 | 89 | 3.2 | 3.2 | 0.00 | 0.00 | 0.00 | 98 | 1017.0 |
| 20260906082217 | 20 | 89 | 0.0 | 1.6 | 0.00 | 0.00 | 0.00 | 98 | 1017.3 |
| 20260906081713 | 20 | 204 | 1.6 | 1.6 | 0.00 | 0.00 | 0.00 | 98 | 1017.2 |
| 20260906081208 | 19 | 115 | 3.2 | 3.2 | 0.00 | 0.00 | 0.00 | 98 | 1017.1 |
| 20260906080704 | 19 | 98 | 3.2 | 4.8 | 0.00 | 0.00 | 0.00 | 98 | 1017.2 |
| 20260906080200 | 19 | 110 | 4.8 | 4.8 | 0.00 | 0.00 | 0.00 | 98 | 1017.2 |
| 20260906075659 | 19 | 107 | 3.2 | 3.2 | 0.00 | 0.00 | 0.00 | 98 | 1017.3 |
| 20260906075154 | 20 | 107 | 0.0 | 0.0 | 0.00 | 0.00 | 0.00 | 97 | 1017.3 |
| 20260906074649 | 20 | 107 | 0.0 | 0.0 | 0.00 | 0.00 | 0.00 | 97 | 1017.1 |
| 20260906074149 | 20 | 107 | 1.6 | 3.2 | 0.00 | 0.00 | 0.00 | 97 | 1017.2 |
| 20260906073643 | 20 | 107 | 1.6 | 3.2 | 0.00 | 0.00 | 0.00 | 97 | 1017.3 |
| 20260906073139 | 20 | 116 | 1.6 | 3.2 | 0.00 | 0.00 | 0.00 | 97 | 1017.2 |
| 20260906072634 | 20 | 96 | 4.8 | 4.8 | 0.00 | 0.00 | 0.00 | 97 | 1017.3 |
| 20260906072130 | 20 | 111 | 1.6 | 4.8 | 0.00 | 0.00 | 0.00 | 97 | 1017.2 |
| 20260906071626 | 20 | 109 | 4.8 | 6.4 | 0.00 | 0.00 | 0.00 | 97 | 1017.5 |
| 20260906071126 | 20 | 106 | 3.2 | 4.8 | 0.00 | 0.00 | 0.00 | 96 | 1017.7 |
| 20260906070623 | 20 | 106 | 0.0 | 3.2 | 0.00 | 0.00 | 0.00 | 96 | 1017.7 |
| 20260906070119 | 20 | 105 | 0.0 | 0.0 | 0.00 | 0.00 | 0.00 | 96 | 1017.6 |
| 20260906065618 | 20 | 105 | 0.0 | 3.2 | 0.00 | 0.00 | 0.00 | 95 | 1017.6 |
| 20260906065113 | 20 | 115 | 1.6 | 3.2 | 0.00 | 0.00 | 0.00 | 95 | 1017.7 |
| 20260906064609 | 20 | 98 | 3.2 | 4.8 | 0.00 | 0.00 | 0.00 | 95 | 1017.7 |
| 20260906064104 | 20 | 111 | 3.2 | 4.8 | 0.00 | 0.00 | 0.00 | 95 | 1017.8 |
| 20260906063559 | 20 | 102 | 3.2 | 6.4 | 0.00 | 0.00 | 0.00 | 95 | 1017.9 |
| 20260906063055 | 20 | 113 | 4.8 | 6.4 | 0.00 | 0.00 | 0.00 | 95 | 1017.6 |
| 20260906062550 | 20 | 102 | 3.2 | 4.8 | 0.00 | 0.00 | 0.00 | 95 | 1017.8 |
| 20260906062044 | 20 | 98 | 4.8 | 4.8 | 0.00 | 0.00 | 0.00 | 96 | 1017.9 |
| 20260906061541 | 20 | 98 | 3.2 | 3.2 | 0.00 | 0.00 | 0.00 | 97 | 1017.9 |
| 20260906061040 | 20 | 94 | 0.0 | 1.6 | 0.00 | 0.00 | 0.00 | 97 | 1017.7 |
| 20260906060537 | 19 | 94 | 0.0 | 0.0 | 0.00 | 0.00 | 0.00 | 98 | 1017.8 |
| 20260906060034 | 20 | 94 | 0.0 | 0.0 | 0.00 | 0.00 | 0.00 | 97 | 1017.5 |
| 20260906055529 | 20 | 94 | 0.0 | 0.0 | 0.00 | 0.00 | 0.00 | 97 | 1017.7 |
| 20260906055025 | 20 | 94 | 0.0 | 0.0 | 0.00 | 0.00 | 0.00 | 97 | 1017.7 |
| 20260906054524 | 20 | 94 | 0.0 | 0.0 | 0.00 | 0.00 | 0.00 | 97 | 1017.6 |
| 20260906054020 | 20 | 94 | 0.0 | 0.0 | 0.00 | 0.00 | 0.00 | 97 | 1017.8 |
| 20260906053516 | 20 | 94 | 0.0 | 0.0 | 0.00 | 0.00 | 0.00 | 96 | 1017.7 |
| 20260906053011 | 20 | 94 | 0.0 | 0.0 | 0.00 | 0.00 | 0.00 | 96 | 1017.7 |
| 20260906052507 | 20 | 94 | 0.0 | 0.0 | 0.00 | 0.00 | 0.00 | 96 | 1017.6 |
| 20260906052004 | 20 | 94 | 0.0 | 0.0 | 0.00 | 0.00 | 0.00 | 95 | 1017.8 |
| 20260906051459 | 20 | 94 | 1.6 | 1.6 | 0.00 | 0.00 | 0.00 | 96 | 1017.9 |
| 20260906050954 | 20 | 94 | 0.0 | 0.0 | 0.00 | 0.00 | 0.00 | 95 | 1017.7 |
| 20260906050453 | 20 | 94 | 0.0 | 0.0 | 0.00 | 0.00 | 0.00 | 95 | 1017.7 |
| 20260906045948 | 20 | 94 | 0.0 | 1.6 | 0.00 | 0.00 | 0.00 | 95 | 1017.8 |
| 20260906045447 | 20 | 94 | 0.0 | 0.0 | 0.00 | 0.00 | 0.00 | 95 | 1017.8 |
| 20260906044943 | 20 | 94 | 0.0 | 0.0 | 0.00 | 0.00 | 0.00 | 95 | 1017.7 |
| 20260906044438 | 20 | 94 | 0.0 | 0.0 | 0.00 | 0.00 | 0.00 | 95 | 1017.8 |
| 20260906043933 | 20 | 94 | 0.0 | 0.0 | 0.00 | 0.00 | 0.00 | 94 | 1017.9 |
| 20260906043429 | 20 | 94 | 0.0 | 0.0 | 0.00 | 0.00 | 0.00 | 94 | 1017.8 |
| 20260906042925 | 20 | 94 | 0.0 | 0.0 | 0.00 | 0.00 | 0.00 | 93 | 1017.7 |
| 20260906042424 | 20 | 94 | 0.0 | 0.0 | 0.00 | 0.00 | 0.00 | 93 | 1017.7 |
| 20260906041918 | 20 | 94 | 0.0 | 0.0 | 0.00 | 0.00 | 0.00 | 93 | 1017.7 |
| 20260906041415 | 20 | 94 | 0.0 | 0.0 | 0.00 | 0.00 | 0.00 | 94 | 1017.7 |
| 20260906040914 | 20 | 94 | 0.0 | 0.0 | 0.00 | 0.00 | 0.00 | 94 | 1017.6 |
| 20260906040409 | 20 | 94 | 0.0 | 0.0 | 0.00 | 0.00 | 0.00 | 94 | 1017.8 |
| 20260906035905 | 20 | 94 | 0.0 | 0.0 | 0.00 | 0.00 | 0.00 | 93 | 1017.8 |
| 20260906035400 | 20 | 94 | 0.0 | 0.0 | 0.00 | 0.00 | 0.00 | 93 | 1017.6 |
| 20260906034855 | 20 | 94 | 0.0 | 0.0 | 0.00 | 0.00 | 0.00 | 93 | 1017.3 |
| 20260906034350 | 20 | 94 | 0.0 | 1.6 | 0.00 | 0.00 | 0.00 | 93 | 1017.8 |
| 20260906033846 | 20 | 94 | 0.0 | 0.0 | 0.00 | 0.00 | 0.00 | 94 | 1017.6 |
| 20260906033345 | 20 | 94 | 0.0 | 0.0 | 0.00 | 0.00 | 0.00 | 94 | 1017.8 |
| 20260906032842 | 20 | 94 | 0.0 | 0.0 | 0.00 | 0.00 | 0.00 | 93 | 1017.9 |
| 20260906032337 | 20 | 94 | 0.0 | 0.0 | 0.00 | 0.00 | 0.00 | 93 | 1017.9 |
| 20260906031833 | 20 | 94 | 0.0 | 0.0 | 0.00 | 0.00 | 0.00 | 93 | 1017.9 |
| 20260906031328 | 20 | 94 | 0.0 | 0.0 | 0.00 | 0.00 | 0.00 | 93 | 1017.9 |
| 20260906030827 | 20 | 94 | 0.0 | 0.0 | 0.00 | 0.00 | 0.00 | 92 | 1017.9 |
| 20260906030322 | 20 | 94 | 0.0 | 0.0 | 0.00 | 0.00 | 0.00 | 92 | 1017.8 |
| 20260906025817 | 20 | 94 | 0.0 | 0.0 | 0.00 | 0.00 | 0.00 | 93 | 1018.1 |
| 20260906025311 | 20 | 94 | 0.0 | 0.0 | 0.00 | 0.00 | 0.00 | 93 | 1018.1 |
| 20260906024810 | 20 | 94 | 0.0 | 0.0 | 0.00 | 0.00 | 0.00 | 93 | 1018.1 |
| 20260906024309 | 20 | 94 | 0.0 | 0.0 | 0.00 | 0.00 | 0.00 | 93 | 1018.1 |
| 20260906023805 | 21 | 94 | 0.0 | 0.0 | 0.00 | 0.00 | 0.00 | 93 | 1018.0 |
| 20260906023301 | 21 | 94 | 0.0 | 0.0 | 0.00 | 0.00 | 0.00 | 92 | 1017.9 |
| 20260906022756 | 21 | 94 | 0.0 | 0.0 | 0.00 | 0.00 | 0.00 | 92 | 1017.9 |
| 20260906022251 | 21 | 94 | 0.0 | 0.0 | 0.00 | 0.00 | 0.00 | 92 | 1017.8 |
| 20260906021747 | 21 | 94 | 0.0 | 0.0 | 0.00 | 0.00 | 0.00 | 91 | 1017.7 |
| 20260906021245 | 21 | 94 | 0.0 | 0.0 | 0.00 | 0.00 | 0.00 | 91 | 1017.2 |
| 20260906020741 | 21 | 94 | 0.0 | 0.0 | 0.00 | 0.00 | 0.00 | 90 | 1017.2 |
| 20260906020235 | 21 | 94 | 0.0 | 0.0 | 0.00 | 0.00 | 0.00 | 88 | 1017.1 |
| 20260906015730 | 22 | 94 | 0.0 | 0.0 | 0.00 | 0.00 | 0.00 | 88 | 1017.0 |
| 20260906015228 | 22 | 94 | 0.0 | 0.0 | 0.00 | 0.00 | 0.00 | 87 | 1016.8 |
| 20260906014723 | 22 | 94 | 0.0 | 0.0 | 0.00 | 0.00 | 0.00 | 86 | 1016.6 |
| 20260906014218 | 22 | 94 | 0.0 | 0.0 | 0.00 | 0.00 | 0.00 | 85 | 1016.6 |
| 20260906013709 | 22 | 94 | 1.6 | 3.2 | 0.00 | 0.00 | 0.00 | 83 | 1016.3 |
| 20260906013209 | 23 | 254 | 0.0 | 0.0 | 0.00 | 0.00 | 0.00 | 82 | 1016.4 |
| 20260906012704 | 23 | 254 | 0.0 | 0.0 | 0.00 | 0.00 | 0.00 | 81 | 1016.1 |
| 20260906012203 | 23 | 254 | 0.0 | 1.6 | 0.00 | 0.00 | 0.00 | 80 | 1016.2 |
| 20260906011659 | 23 | 249 | 1.6 | 3.2 | 0.00 | 0.00 | 0.00 | 79 | 1015.9 |
| 20260906011153 | 23 | 94 | 1.6 | 6.4 | 0.00 | 0.00 | 0.00 | 79 | 1015.6 |
| 20260906010649 | 24 | 110 | 1.6 | 4.8 | 0.00 | 0.00 | 0.00 | 79 | 1015.1 |
| 20260906010145 | 24 | 195 | 3.2 | 4.8 | 0.00 | 0.00 | 0.00 | 78 | 1015.1 |
| 20260906005644 | 24 | 129 | 3.2 | 6.4 | 0.00 | 0.00 | 0.00 | 78 | 1014.9 |
| 20260906005144 | 24 | 118 | 3.2 | 9.7 | 0.00 | 0.00 | 0.00 | 77 | 1015.2 |
| 20260906004643 | 24 | 111 | 6.4 | 9.7 | 0.00 | 0.00 | 0.00 | 76 | 1015.1 |
| 20260906004138 | 25 | 109 | 6.4 | 6.4 | 0.00 | 0.00 | 0.00 | 76 | 1015.2 |
| 20260906003633 | 25 | 113 | 6.4 | 11.3 | 0.00 | 0.00 | 0.00 | 75 | 1015.1 |
| 20260906003129 | 25 | 112 | 8.0 | 9.7 | 0.00 | 0.00 | 0.00 | 75 | 1015.2 |
| 20260906002624 | 25 | 136 | 6.4 | 9.7 | 0.00 | 0.00 | 0.00 | 74 | 1015.3 |
| 20260906002119 | 25 | 97 | 0.0 | 1.6 | 0.00 | 0.00 | 0.00 | 73 | 1015.3 |
| 20260906001615 | 25 | 122 | 3.2 | 6.4 | 0.00 | 0.00 | 0.00 | 73 | 1015.3 |
| 20260906001114 | 26 | 100 | 1.6 | 6.4 | 0.00 | 0.00 | 0.00 | 73 | 1015.0 |
| 20260906000611 | 26 | 119 | 4.8 | 6.4 | 0.00 | 0.00 | 0.00 | 72 | 1015.1 |
| 20260906000106 | 26 | 89 | 9.7 | 12.9 | 0.00 | 0.00 | 0.00 | 72 | 1015.0 |
| 20260905235604 | 26 | 143 | 6.4 | 11.3 | 0.00 | 0.00 | 0.00 | 72 | 1014.9 |
| 20260905235100 | 26 | 116 | 6.4 | 11.3 | 0.00 | 0.00 | 0.00 | 71 | 1015.1 |
| 20260905234555 | 26 | 75 | 8.0 | 14.5 | 0.00 | 0.00 | 0.00 | 71 | 1015.0 |
| 20260905234050 | 26 | 77 | 8.0 | 16.1 | 0.00 | 0.00 | 0.00 | 70 | 1014.8 |
| 20260905233545 | 27 | 66 | 9.7 | 12.9 | 0.00 | 0.00 | 0.00 | 70 | 1014.8 |
| 20260905233045 | 27 | 100 | 6.4 | 9.7 | 0.00 | 0.00 | 0.00 | 70 | 1015.0 |
| 20260905232540 | 27 | 48 | 9.7 | 11.3 | 0.00 | 0.00 | 0.00 | 69 | 1014.9 |
| 20260905232036 | 27 | 116 | 12.9 | 14.5 | 0.00 | 0.00 | 0.00 | 69 | 1014.9 |
| 20260905231531 | 27 | 55 | 9.7 | 20.9 | 0.00 | 0.00 | 0.00 | 68 | 1014.6 |
| 20260905231027 | 27 | 119 | 11.3 | 14.5 | 0.00 | 0.00 | 0.00 | 68 | 1014.7 |
| 20260905230526 | 27 | 74 | 12.9 | 17.7 | 0.00 | 0.00 | 0.00 | 67 | 1015.0 |
| 20260905230024 | 27 | 78 | 8.0 | 24.1 | 0.00 | 0.00 | 0.00 | 67 | 1014.9 |
| 20260905225520 | 27 | 88 | 6.4 | 14.5 | 0.00 | 0.00 | 0.00 | 67 | 1014.9 |
| 20260905225015 | 27 | 59 | 6.4 | 14.5 | 0.00 | 0.00 | 0.00 | 67 | 1015.1 |
| 20260905224515 | 27 | 104 | 16.1 | 17.7 | 0.00 | 0.00 | 0.00 | 67 | 1015.2 |
| 20260905224014 | 27 | 91 | 8.0 | 12.9 | 0.00 | 0.00 | 0.00 | 67 | 1015.2 |
| 20260905223512 | 27 | 81 | 6.4 | 12.9 | 0.00 | 0.00 | 0.00 | 66 | 1015.2 |
| 20260905223008 | 27 | 8 | 6.4 | 11.3 | 0.00 | 0.00 | 0.00 | 65 | 1015.3 |
| 20260905222507 | 28 | 107 | 8.0 | 12.9 | 0.00 | 0.00 | 0.00 | 65 | 1015.4 |
| 20260905222002 | 27 | 32 | 9.7 | 11.3 | 0.00 | 0.00 | 0.00 | 66 | 1015.4 |
| 20260905221454 | 27 | 104 | 11.3 | 14.5 | 0.00 | 0.00 | 0.00 | 65 | 1015.3 |
| 20260905220950 | 27 | 42 | 6.4 | 14.5 | 0.00 | 0.00 | 0.00 | 67 | 1015.2 |
| 20260905220446 | 27 | 51 | 9.7 | 14.5 | 0.00 | 0.00 | 0.00 | 67 | 1015.1 |
| 20260905215944 | 27 | 83 | 4.8 | 16.1 | 0.00 | 0.00 | 0.00 | 66 | 1015.2 |
| 20260905215440 | 27 | 45 | 3.2 | 17.7 | 0.00 | 0.00 | 0.00 | 66 | 1015.1 |
| 20260905214937 | 28 | 48 | 9.7 | 14.5 | 0.00 | 0.00 | 0.00 | 67 | 1014.9 |
| 20260905214432 | 27 | 59 | 9.7 | 14.5 | 0.00 | 0.00 | 0.00 | 67 | 1015.2 |
| 20260905213931 | 27 | 1 | 4.8 | 12.9 | 0.00 | 0.00 | 0.00 | 69 | 1015.4 |
| 20260905213428 | 27 | 78 | 3.2 | 9.7 | 0.00 | 0.00 | 0.00 | 68 | 1015.5 |
| 20260905212923 | 27 | 68 | 6.4 | 9.7 | 0.00 | 0.00 | 0.00 | 69 | 1015.5 |
| 20260905212418 | 27 | 67 | 8.0 | 12.9 | 0.00 | 0.00 | 0.00 | 69 | 1015.5 |
| 20260905211917 | 27 | 48 | 4.8 | 9.7 | 0.00 | 0.00 | 0.00 | 70 | 1015.8 |
| 20260905211413 | 27 | 52 | 6.4 | 12.9 | 0.00 | 0.00 | 0.00 | 69 | 1015.6 |
| 20260905210909 | 27 | 20 | 1.6 | 12.9 | 0.00 | 0.00 | 0.00 | 70 | 1015.8 |
| 20260905210408 | 27 | 87 | 9.7 | 14.5 | 0.00 | 0.00 | 0.00 | 68 | 1016.2 |
| 20260905205908 | 27 | 52 | 3.2 | 4.8 | 0.00 | 0.00 | 0.00 | 70 | 1016.0 |
| 20260905205403 | 27 | 70 | 6.4 | 11.3 | 0.00 | 0.00 | 0.00 | 70 | 1016.1 |
| 20260905204901 | 27 | 68 | 3.2 | 6.4 | 0.00 | 0.00 | 0.00 | 70 | 1016.4 |
| 20260905204358 | 27 | 43 | 4.8 | 9.7 | 0.00 | 0.00 | 0.00 | 72 | 1016.4 |
| 20260905203856 | 27 | 61 | 3.2 | 9.7 | 0.00 | 0.00 | 0.00 | 71 | 1016.4 |
| 20260905203352 | 27 | 105 | 3.2 | 4.8 | 0.00 | 0.00 | 0.00 | 68 | 1016.5 |
| 20260905202842 | 27 | 91 | 4.8 | 4.8 | 0.00 | 0.00 | 0.00 | 69 | 1016.5 |
| 20260905202337 | 27 | 102 | 4.8 | 6.4 | 0.00 | 0.00 | 0.00 | 71 | 1016.7 |
| 20260905201833 | 27 | 94 | 1.6 | 3.2 | 0.00 | 0.00 | 0.00 | 70 | 1016.7 |
| 20260905201328 | 27 | 125 | 4.8 | 6.4 | 0.00 | 0.00 | 0.00 | 71 | 1016.8 |
| 20260905200828 | 27 | 90 | 6.4 | 9.7 | 0.00 | 0.00 | 0.00 | 71 | 1016.8 |
| 20260905200325 | 27 | 47 | 1.6 | 9.7 | 0.00 | 0.00 | 0.00 | 72 | 1017.1 |
| 20260905195821 | 27 | 316 | 4.8 | 4.8 | 0.00 | 0.00 | 0.00 | 70 | 1017.0 |
| 20260905195317 | 26 | 72 | 3.2 | 6.4 | 0.00 | 0.00 | 0.00 | 73 | 1017.0 |
| 20260905194813 | 27 | 89 | 0.0 | 6.4 | 0.00 | 0.00 | 0.00 | 74 | 1017.1 |
| 20260905194307 | 27 | 96 | 4.8 | 4.8 | 0.00 | 0.00 | 0.00 | 72 | 1017.0 |
| 20260905193806 | 27 | 195 | 0.0 | 4.8 | 0.00 | 0.00 | 0.00 | 71 | 1017.1 |
| 20260905193302 | 26 | 115 | 6.4 | 9.7 | 0.00 | 0.00 | 0.00 | 71 | 1017.2 |
| 20260905192756 | 26 | 68 | 0.0 | 6.4 | 0.00 | 0.00 | 0.00 | 72 | 1017.0 |
| 20260905192253 | 26 | 82 | 1.6 | 4.8 | 0.00 | 0.00 | 0.00 | 74 | 1017.3 |
| 20260905191752 | 26 | 74 | 3.2 | 9.7 | 0.00 | 0.00 | 0.00 | 75 | 1016.9 |
| 20260905191250 | 26 | 139 | 4.8 | 11.3 | 0.00 | 0.00 | 0.00 | 74 | 1017.0 |
| 20260905190749 | 26 | 134 | 3.2 | 12.9 | 0.00 | 0.00 | 0.00 | 77 | 1017.1 |
| 20260905190248 | 25 | 135 | 1.6 | 4.8 | 0.00 | 0.00 | 0.00 | 75 | 1017.1 |
| 20260905185747 | 26 | 120 | 6.4 | 9.7 | 0.00 | 0.00 | 0.00 | 75 | 1017.0 |
| 20260905185243 | 26 | 111 | 3.2 | 4.8 | 0.00 | 0.00 | 0.00 | 76 | 1017.1 |
| 20260905184742 | 26 | 299 | 3.2 | 3.2 | 0.00 | 0.00 | 0.00 | 75 | 1017.1 |
| 20260905184242 | 26 | 73 | 1.6 | 3.2 | 0.00 | 0.00 | 0.00 | 76 | 1017.0 |
| 20260905183740 | 25 | 74 | 0.0 | 1.6 | 0.00 | 0.00 | 0.00 | 76 | 1017.1 |
| 20260905183236 | 25 | 85 | 1.6 | 4.8 | 0.00 | 0.00 | 0.00 | 77 | 1017.2 |
| 20260905182731 | 25 | 69 | 3.2 | 4.8 | 0.00 | 0.00 | 0.00 | 78 | 1017.3 |
| 20260905182230 | 25 | 60 | 1.6 | 1.6 | 0.00 | 0.00 | 0.00 | 79 | 1017.3 |
| 20260905181726 | 25 | 95 | 3.2 | 4.8 | 0.00 | 0.00 | 0.00 | 80 | 1017.2 |
| 20260905181224 | 25 | 88 | 1.6 | 4.8 | 0.00 | 0.00 | 0.00 | 79 | 1017.2 |
| 20260905180720 | 25 | 81 | 6.4 | 6.4 | 0.00 | 0.00 | 0.00 | 79 | 1017.1 |
| 20260905180215 | 25 | 103 | 9.7 | 11.3 | 0.00 | 0.00 | 0.00 | 78 | 1017.2 |
| 20260905175714 | 25 | 94 | 8.0 | 11.3 | 0.00 | 0.00 | 0.00 | 79 | 1017.5 |
| 20260905175209 | 25 | 133 | 8.0 | 12.9 | 0.00 | 0.00 | 0.00 | 78 | 1017.3 |
| 20260905174704 | 25 | 96 | 4.8 | 12.9 | 0.00 | 0.00 | 0.00 | 79 | 1017.3 |
| 20260905174200 | 25 | 108 | 4.8 | 9.7 | 0.00 | 0.00 | 0.00 | 77 | 1017.6 |
| 20260905173656 | 24 | 167 | 0.0 | 4.8 | 0.00 | 0.00 | 0.00 | 80 | 1017.5 |
| 20260905173151 | 24 | 69 | 4.8 | 9.7 | 0.00 | 0.00 | 0.00 | 83 | 1017.8 |
| 20260905172651 | 24 | 3 | 0.0 | 1.6 | 0.00 | 0.00 | 0.00 | 81 | 1017.7 |
| 20260905172151 | 24 | 71 | 1.6 | 1.6 | 0.00 | 0.00 | 0.00 | 81 | 1017.7 |
| 20260905171647 | 23 | 71 | 4.8 | 4.8 | 0.00 | 0.00 | 0.00 | 83 | 1017.7 |
| 20260905171143 | 25 | 111 | 3.2 | 4.8 | 0.00 | 0.00 | 0.00 | 81 | 1017.9 |
| 20260905170640 | 24 | 18 | 0.0 | 1.6 | 0.00 | 0.00 | 0.00 | 80 | 1017.8 |
| 20260905170135 | 24 | 34 | 1.6 | 1.6 | 0.00 | 0.00 | 0.00 | 82 | 1017.9 |
| 20260905165629 | 24 | 26 | 0.0 | 0.0 | 0.00 | 0.00 | 0.00 | 82 | 1017.9 |
| 20260905165124 | 23 | 135 | 0.0 | 0.0 | 0.00 | 0.00 | 0.00 | 86 | 1018.2 |
| 20260905164625 | 23 | 352 | 1.6 | 1.6 | 0.00 | 0.00 | 0.00 | 84 | 1018.2 |
| 20260905164124 | 23 | 351 | 0.0 | 1.6 | 0.00 | 0.00 | 0.00 | 85 | 1018.2 |
| 20260905163620 | 23 | 45 | 0.0 | 0.0 | 0.00 | 0.00 | 0.00 | 86 | 1018.2 |
| 20260905163116 | 22 | 177 | 0.0 | 0.0 | 0.00 | 0.00 | 0.00 | 88 | 1017.9 |
| 20260905162612 | 22 | 343 | 1.6 | 3.2 | 0.00 | 0.00 | 0.00 | 88 | 1018.1 |